Date,TemperatureHighF,TemperatureAvgF,TemperatureLowF,DewpointHighF,DewpointAvgF,DewpointLowF,HumidityHigh,HumidityAvg,HumidityLow,PressureMaxIn,PressureMinIn,WindSpeedMaxMPH,WindSpeedAvgMPH,GustSpeedMaxMPH,PrecipitationSumIn
2013-1-1,36,20,13,21,16,10,93,84,55,0.00,40.00,0,-999,0,0.00
2013-1-2,15,12,10,13,10,7,92,90,89,0.00,40.00,0,-999,0,0.00
2013-1-3,16,15,11,14,13,9,91,91,90,0.00,40.00,0,-999,0,0.00
2013-1-4,37,27,16,35,25,14,97,95,91,0.00,40.00,0,-999,0,0.00
2013-1-5,27,21,17,25,19,15,94,92,88,0.00,40.00,0,-999,0,0.00
2013-1-6,33,29,28,27,26,25,93,88,78,0.00,40.00,0,-999,0,0.00
2013-1-7,36,32,29,33,30,27,94,91,85,0.00,40.00,0,-999,0,0.00
2013-1-8,38,33,29,35,30,25,92,88,81,0.00,40.00,0,-999,0,0.00
2013-1-9,38,31,21,31,24,18,91,79,49,0.00,40.00,0,-999,0,0.00
2013-1-10,25,22,20,20,18,17,89,84,78,0.00,40.00,0,-999,0,0.00
2013-1-11,26,17,11,15,11,5,91,78,54,0.00,40.00,0,-999,0,0.00
2013-1-12,26,13,9,12,8,5,90,82,47,0.00,40.00,0,-999,0,0.00
2013-1-13,19,10,8,13,6,3,91,83,62,0.00,40.00,0,-999,0,0.00
2013-1-14,25,20,16,23,18,13,92,88,84,0.00,40.00,0,-999,0,0.00
2013-1-15,45,29,20,33,24,19,96,82,54,0.00,40.00,0,-999,0,0.00
2013-1-16,48,34,29,27,23,17,85,66,35,0.00,40.00,0,-999,0,0.00
2013-1-17,55,36,27,26,22,19,75,58,31,0.00,40.00,0,-999,0,0.00
2013-1-18,52,35,28,17,14,7,64,44,23,0.00,40.00,0,-999,0,0.00
2013-1-19,54,40,28,22,19,15,64,45,22,0.00,40.00,0,-999,0,0.00
2013-1-20,57,39,26,21,18,13,66,46,24,0.00,40.00,0,-999,0,0.00
2013-1-21,54,36,25,21,17,13,68,50,27,0.00,40.00,0,-999,0,0.00
2013-1-22,31,23,20,19,15,12,78,70,59,0.00,40.00,0,-999,0,0.00
2013-1-23,31,24,22,28,19,16,90,81,77,0.00,40.00,0,-999,0,0.00
2013-1-24,39,30,19,31,23,16,91,78,54,0.00,40.00,0,-999,0,0.00
2013-1-25,38,34,27,34,31,23,92,89,84,0.00,40.00,0,-999,0,0.00
2013-1-26,30,27,24,25,23,21,90,86,79,0.00,40.00,0,-999,0,0.00
2013-1-27,27,27,26,25,23,22,91,88,81,0.00,40.00,0,-999,0,0.00
2013-1-28,28,26,26,26,24,23,94,90,85,0.00,40.00,0,-999,0,0.00
2013-1-29,32,29,27,29,27,26,94,92,89,0.00,40.00,0,-999,0,0.00
2013-1-31,36,35,34,32,32,31,90,88,84,0.00,40.00,0,-999,0,0.00